Weather in Peredel

Russia / Kaluga Oblast     55°12′09″N   35°40′45″E
temp.,
°C
wind,
m/s
gust,
m/s
humid.,
%
clouds,
%
prec.,
mm/h
press.,
hPa
HPBL,
m
25 october, mon
mon2500:00−1nw398915 0.0 1027453
03:00−2nw38905 0.0 1028339
06:00−2wnw2692100 0.0 1029252
09:00−1wnw2479100 0.0 1030258
12:00+2wsw346418 0.0 1030685
15:00+3wsw366299 0.0 1029711
18:00+1sw3107595 0.0 1028368
21:000sw413785 0.0 1028422
26 october, tue
tue2600:000sw414835 0.0 1027446
03:000sw41484100 0.0 1026455
06:000sw4148298 0.0 1025433
09:00+1sw41475100 0.0 1025462
12:00+5sw51462100 0.0 1023560
15:00+5sw51459100 0.0 1022674
18:00+3sw51468100 0.0 1022522
21:00+2sw41473100 0.0 1021512
27 october, wed
wed2700:00+2sw41476100 0.0 1021454
03:00+1sw41378100 0.0 1020380
06:00+1sw41379100 0.0 1019349
09:00+2sw41476100 0.0 1019457
12:00+5sw51467100 0.0 1018581
15:00+6wsw51369100 0.0 1017713
18:00+4wsw41385100 0.8 1018607
21:00+5w41084100 0.8 1019831
28 october, thu
thu2800:00+5wsw31086100 0.0 1019447
03:00+5wsw31191100 0.0 1019374
06:00+5sw31093100 0.0 1018368
09:00+6sw41290100 0.5 1017640
12:00+7wsw41292100 0.3 1017629
15:00+7wsw41292100 0.4 1017606
18:00+7w41294100 0.4 1017636
21:00+8w41196100 0.4 1018557
29 october, fri
fri2900:00+8w3994100 0.0 1019384
03:00+8w3898100 0.1 1020335
06:00+8wnw2499100 0.0 1021163
09:00+8nne1198100 0.3 102323
12:00+8ese1398100 0.4 1024107
15:00+8se1396100 0.4 1025149
18:00+8s2497100 0.0 1027157
21:00+8s2498100 0.1 1027150